Simultaneous Nadir Overpasses (SNOs) Predictions

Prediction of SNOs between AURA and NPP Satellite Orbit:

Table of predicted SNOs for the next 14.0 days since TLE Epoch: 1/16/2021
Index Date (AURA) Time (AURA) Lat,Lon (AURA) SZA (AURA ) Date (NPP) Time (NPP) Lat,Lon (NPP) SZA (NPP ) Distance(km) Time Diff (sec)
1 01/17/2021 03:41:22 -79.56,-158.11 66.89 01/17/2021 03:41:08 -79.56,-158.20 66.86 2.02 14
2 01/17/2021 04:30:40 79.85, 11.69 112.69 01/17/2021 04:31:43 79.85, 11.72 112.63 0.73 63
3 01/19/2021 19:08:28 79.42, 149.18 112.82 01/19/2021 19:07:22 79.42, 149.10 112.88 1.80 66
4 01/19/2021 19:57:47 -79.69, -41.26 67.59 01/19/2021 19:57:58 -79.70, -41.21 67.61 1.14 11
5 01/22/2021 11:24:53 79.56, -94.01 112.07 01/22/2021 11:24:12 79.56, -93.96 112.09 1.04 41
6 01/22/2021 12:14:16 -79.72, 74.79 68.18 01/22/2021 12:14:53 -79.71, 74.67 68.18 2.41 37
7 01/25/2021 03:41:22 79.58, 22.02 111.44 01/25/2021 03:41:07 79.57, 21.89 111.47 2.84 15
8 01/25/2021 04:30:42 -79.85,-168.34 68.98 01/25/2021 04:31:44 -79.84,-168.33 69.02 0.35 62
9 01/27/2021 19:08:31 -79.38, -31.09 68.93 01/27/2021 19:07:24 -79.38, -31.23 68.85 3.11 67



Historial Predications of SNOs between AURA and NPP
